Regional Weather Roundup
Issued by NWS

Home | Current Version | Previous Version | Text Only | Print | Product List | Glossary On
Versions: 1 2 3 4 5 6 7 8 9 10 11 12 13 14 15 16 17 18 19 20 21 22 23 24 25 26 27 28 29 30 31 32 33 34 35 36 37 38 39 40 41 42 43 44 45 46 47 48 49 50
000
ASUS43 KIND 250709
RWRIN

WEATHER ROUNDUP FOR INDIANA
NATIONAL WEATHER SERVICE INDIANAPOLIS IN
300 AM EDT SUN AUG 25 2019

NOTE: "FAIR" INDICATES FEW OR NO CLOUDS BELOW 12,000 FEET WITH NO
SIGNIFICANT WEATHER AND/OR OBSTRUCTIONS TO VISIBILITY.

* - STATION DOES NOT REPORT WEATHER SUCH AS PRECIPITATION OR FOG.

+ - STATION NOT QUALITY CONTROLLED BY THE NATIONAL WEATHER SERVICE.
    USE DATA WITH CAUTION...ESPECIALLY DEWPOINT AND RELATIVE
    HUMIDITY OBSERVATIONS.

INZ001>003-010>013-019-020-250800-
NORTHWEST INDIANA

CITY           SKY/WX    TMP DP  RH WIND       PRES   REMARKS
GARY /AIRPORT/ FAIR      62  50  65 SE6       30.18F
KNOX *+        FAIR      54  50  87 E5        30.18F
LA PORTE +     FAIR      55  51  88 NE3       30.20F
MICHIGAN CITY+ FAIR      54  52  94 CALM      30.20F
MONTICELLO +   FAIR      58  53  81 E5        30.16F
RENSSELAER +   FAIR      54  52  94 CALM      30.17F
VALPARAISO     FAIR      55  49  80 E6        30.19F

$$

LMZ046-743>745-250800-
SOUTHERN LAKE MICHIGAN

STATION/POSITION TIME  TEMP    WIND        PRES    WAVE
                       AIR SEA DIR/SP/G            HT
                 (UTC) (F)     (DEG/KT/KT) (MB)    (FT)
BURNS HARBOR     0640   64     110/  6/ 10 1022.4F
MICHIGAN CITY    0640   60     100/  8/  9   N/A
5NW MICH CITY    0700   62 63  110/ 10/ 12   N/A     1

$$

INZ004-005-014>016-021>024-250800-
NORTH CENTRAL INDIANA

CITY           SKY/WX    TMP DP  RH WIND       PRES   REMARKS
GOSHEN         FAIR      53  50  89 E5        30.21F
LOGANSPORT +   FAIR      55  52  88 E7        30.17F
PERU/GRISSOM   FAIR      60  56  88 E8        30.15F
PLYMOUTH *+    MOCLDY    55  50  82 CALM      30.19F
ROCHESTER +    FAIR      55  52  88 E7        30.18F
SOUTH BEND     FAIR      58  51  78 E5        30.21F
WARSAW +       FAIR      54  50  87 E3        30.21S

$$

INZ006>009-017-018-025>027-250800-
NORTHEAST INDIANA

CITY           SKY/WX    TMP DP  RH WIND       PRES   REMARKS
ANGOLA *+      FAIR      55 N/A N/A CALM      30.21F
AUBURN +       FAIR      54  52  94 CALM      30.22S
FORT WAYNE     FAIR      56  52  86 E3        30.20F
HUNTINGTON +   FAIR      54  53  95 NE3       30.19F
KENDALLVILLE + FAIR      55  51  86 CALM      30.22F

$$

INZ028-029-035-036-043>045-051>053-250800-
WEST CENTRAL INDIANA

CITY           SKY/WX    TMP DP  RH WIND       PRES   REMARKS
CRAWFORDSVL +  FAIR      58  58 100 E6        30.14S
GREENCASTLE +  FAIR      59  55  88 CALM      30.14S
LAFAYETTE      FAIR      60  54  80 E8        30.15F
TERRE HAUTE    FAIR      57  55  93 E5        30.12S

$$

INZ030>032-037>040-046>048-054>057-064-065-250800-
CENTRAL INDIANA

CITY           SKY/WX    TMP DP  RH WIND       PRES   REMARKS
ANDERSON +     FAIR      59  55  87 E6        30.17F
FISHERS *+     FAIR      59  59 100 E6        30.15F
FRANKFORT +    FAIR      60  56  85 E8        30.16F
INDIANAPOLIS   FAIR      63  56  78 E12       30.12F
-EAGLE CREEK   FAIR      62  56  80 E8        30.13F
KOKOMO +       FAIR      56  55  97 E7        30.17F
MARION +       FAIR     N/A N/A N/A E9        30.18F
MT COMFORT *+  FAIR      55  55 100 CALM      30.15F
SHELBYVILLE    FAIR      59  55  87 E8        30.13F
ZIONSVILLE +   FAIR      57  57 100 E6        30.16F

$$

INZ033-034-041-042-049-050-058-059-250800-
EAST CENTRAL INDIANA

CITY           SKY/WX    TMP DP  RH WIND       PRES   REMARKS
MUNCIE         FAIR      59  54  83 E6        30.18F
RICHMOND +     FAIR      54  54 100 NE7       30.18F

$$

INZ060-061-067>069-081>083-085>088-250800-
SOUTHWEST INDIANA

CITY           SKY/WX    TMP DP  RH WIND       PRES   REMARKS
EVANSVILLE     FAIR      63  56  78 NE3       30.07F
HUNTINGBURG +  FAIR      62  56  80 E6        30.08F
WASHINGTON +   FAIR      58  58  99 NE3       30.08F

$$

INZ062-063-066-070>080-084-089>092-250800-
SOUTH CENTRAL AND SOUTHEAST INDIANA

CITY           SKY/WX    TMP DP  RH WIND       PRES   REMARKS
BATESVILLE +   CLEAR     57  57 100 VRB5      30.14F
BEDFORD +        N/A     59  52  77 NE5       30.10
BLOOMINGTON    FAIR      56  53  90 CALM      30.11F
FRENCH LICK *+ FAIR      59  54  82 NE5       30.10F
JEFFERSONVL +  FAIR      59  56  88 N3        30.10F
MADISON *+     FAIR      59  55  88 E6        30.13F
NORTH VERNON + FAIR      55  52  88 NE5       30.12F
SEYMOUR +      FAIR      61  55  82 E5        30.11

$$




USA.gov is the U.S. government's official web portal to all federal, state and local government web resources and services.